Home   Weather   Qyzylorda   Past weeks

Flag for Kazakhstan Past Weather in Qyzylorda, Kazakhstan — Yesterday and Last 2 Weeks

Now
61 °F

Clear.


Feels Like: 61 °F
Forecast: 60 / 80 °F
Wind: 6 mph from Northwest

Location: Kzyl-Orda

Current Time: Apr 26, 2017 at 4:16:20 am

Latest Report: Apr 26, 2017 at 3:00 am


Visibility: 10 mi

Pressure: 29.92 "Hg

Humidity: 59%

Dew Point: 46 °F

Location of QyzylordaLocation

Past Weather in Qyzylorda — Graph

°F

Qyzylorda Temperature Yesterday

Maximum temperature yesterday: 91 °F (at 4:30 pm)
Minimum temperature yesterday: 52 °F (at 6:30 am)
Average temperature yesterday: 72 °F

High & Low Weather Summary for the Past Weeks

 TemperatureHumidityPressure
High91 °F (Apr 25, 4:30 pm)100% (Apr 13, 6:30 am)30.30 "Hg (Apr 13, 6:30 am)
Low41 °F (Apr 12, 7:00 am)11% (Apr 17, 3:30 pm)29.62 "Hg (Apr 15, 4:30 pm)
Average63 °F48%30.00 "Hg
* Reported Apr 11 3:00 am — Apr 26 3:00 am, Qyzylorda, Weather by CustomWeather, © 2017

Note: Actual official high and low records may vary slightly from our data, if they occured in-between our weather recording intervals... More about our weather records

Advertising

Qyzylorda Weather History for the Previous 24 Hours

Scroll right to see more
 ConditionsComfort  
Time TempWeatherWind HumidityBarometerVisibility
3:00 am
Wed, Apr 26
61 °FClear.6 mph59%29.92 "Hg10 mi
2:00 am61 °FClear.1 mph59%29.92 "Hg10 mi
1:00 am61 °FClear.No wind55%29.92 "Hg10 mi
12:00 am64 °FClear.No wind46%29.92 "Hg10 mi
11:00 pm
Tue, Apr 25
68 °FClear.1 mph40%29.92 "Hg10 mi
10:00 pm72 °FClear.6 mph31%29.92 "Hg10 mi
9:00 pm75 °FSunny.6 mph25%29.89 "Hg10 mi
8:30 pm79 °FSunny.6 mph23%29.89 "Hg10 mi
8:00 pm84 °FSunny.10 mph18%29.89 "Hg10 mi
7:30 pm86 °FSunny.8 mph13%29.89 "Hg10 mi
7:00 pm88 °FSunny.10 mph13%29.89 "Hg10 mi
6:30 pm90 °FSunny.6 mph12%29.89 "Hg10 mi
5:30 pm91 °FPassing clouds.6 mph13%29.86 "HgN/A
5:00 pm90 °FPassing clouds.6 mph12%29.86 "HgN/A
4:30 pm91 °FSunny.3 mph12%29.86 "Hg10 mi
4:00 pm90 °FPassing clouds.3 mph13%29.89 "HgN/A
3:30 pm90 °FSunny.1 mph13%29.89 "Hg10 mi
3:00 pm86 °FPassing clouds.3 mph14%29.89 "HgN/A
2:30 pm86 °FPassing clouds.3 mph14%29.89 "HgN/A
2:00 pm86 °FSunny.1 mph14%29.89 "Hg10 mi
1:00 pm84 °FPassing clouds.3 mph19%29.92 "HgN/A
12:30 pm86 °FSunny.6 mph19%29.92 "Hg10 mi
11:30 am82 °FSunny.6 mph23%29.92 "Hg10 mi
11:00 am79 °FSunny.6 mph28%29.92 "Hg10 mi
10:30 am79 °FPassing clouds.3 mph28%29.92 "HgN/A
9:30 am72 °FSunny.No wind38%29.95 "Hg10 mi
8:30 am64 °FPassing clouds.3 mph52%29.95 "HgN/A
7:30 am55 °FClear.6 mph67%29.95 "Hg10 mi
7:00 am52 °FClear.3 mph72%29.92 "Hg10 mi
6:30 am52 °FClear.3 mph72%29.92 "Hg10 mi
6:00 am54 °FClear.3 mph67%29.92 "Hg10 mi
5:30 am54 °FClear.3 mph67%29.95 "Hg10 mi
5:00 am55 °FClear.6 mph67%29.92 "Hg10 mi
4:30 am55 °FClear.6 mph67%29.95 "Hg10 mi
4:00 am55 °FClear.6 mph63%29.95 "Hg10 mi
Weather by CustomWeather, © 2017

See weather overviewHow to use our weather pages